Location: Albany
(35.0170°S, 117.8920°E)
Time: 02:00:39
(UTC+08:00)

Explorer 7 - Pass Details

Date: 29 January 2021
Orbit: 484 x 677 km, 50.3° (Epoch: 01 March)

Event Time Altitude Azimuth Distance (km) Brightness Sun altitude
Rises 13:26:20 0° 326° (NW) 3,000 10.9 67.6°
Reaches altitude 10° 13:28:43 10° 330° (NNW) 2,104 10.3 67.3°
Maximum altitude 13:33:27 51° 45° (NE) 853 8.6 66.6°
Drops below altitude 10° 13:38:15 10° 121° (ESE) 2,122 9.7 65.8°
Sets 13:40:39 0° 125° (SE) 3,027 10.3 65.4°
